Preview of NWS' New Version of Forecast
This preview is not operational and should not be used for support decisions.

Regional Weather Roundup (RWR)

Issued by National Weather Service (NWS)

                            
000
ASUS45 KABQ 202310
RWRNM 
NEW MEXICO REGIONAL WEATHER ROUNDUP
NATIONAL WEATHER SERVICE ALBUQUERQUE NM
400 PM MST WED FEB 20 2019

NOTE: "FAIR" MEANS FEW OR NO CLOUDS BELOW 12,000 FEET AGL WITH NO
       SIGNIFICANT WEATHER OR OBSTRUCTIONS TO VISION.

      THIS PRODUCT IS RELEASED AS TWO VERSIONS.  ONE VERSION NEAR
      THE TOP OF THE HOUR CONTAINING PRELIMINARY DATA FROM ALBUQUERQUE
      AND OTHER STATIONS.  A FINAL VERSION WITH ADDITIONAL DATA IS 
      ISSUED ABOUT 10 MINUTES AFTER THE HOUR.
 
NMZ501-503-504-510>518-210000-
NORTHWEST PLATEAU/NORTHCENTRAL MOUNTAINS
  
CITY           SKY/WX    TMP DP  RH WIND       PRES   REMARKS
FARMINGTON     PTSUNNY   29  13  51 E13       29.75F WCI  19          
LOS ALAMOS     FAIR      30   5  35 CALM      29.74R                  
SANTA FE       FAIR      33   9  36 SW14G23   29.75S WCI  23          
TAOS           FAIR      27  10  49 SW7       29.76S WCI  19          
ANGEL FIRE       N/A     20   7  58 W13G28    29.68R WCI   7          

$$
NMZ402-403-502-505>509-210000-
WESTCENTRAL MOUNTAINS/SOUTHWEST MOUNTAINS
  
CITY           SKY/WX    TMP DP  RH WIND       PRES   REMARKS
GALLUP         FAIR      30  13  49 W10       29.72S WCI  21          
GRANTS         FAIR      33   8  35 SW10      29.75F WCI  25          
SILVER CITY    FAIR      44   4  19 SW10G21   29.79F                  

$$
NMZ407-409-411-412-210000-
SOUTHERN DESERTS
  
CITY           SKY/WX    TMP DP  RH WIND       PRES   REMARKS
DEMING         FAIR      51   4  14 W14       29.80F                  
LAS CRUCES     FAIR      52   8  16 SW10      29.82S                  
ALAMOGORDO     FAIR      50   1  13 S9G17     29.80F                  
T OR C         FAIR      52   0  12 S16G28    29.71F                  

$$
NMZ519>523-210000-
CENTRAL VALLEYS/CENTRAL HIGHLANDS
  
CITY           SKY/WX    TMP DP  RH WIND       PRES   REMARKS
ALBUQUERQUE    FAIR      40   8  26 NW8G18    29.76F WCI  34          
DOUBLE EAGLE   MOSUNNY   37  10  32 W9G17     29.77F WCI  31          
MORIARTY ARPT  FAIR      39  10  29 W12       29.76S WCI  32          
CLINES CORNERS FAIR      33  10  38 W26G36    29.71R WCI  20          
BELEN          FAIR      43   7  22 S3        29.75F                  
SOCORRO        FAIR      47   4  17 S13       29.74F                  

$$
NMZ524>526-539-540-210000-
SOUTHCENTRAL MOUNTAINS
  
CITY           SKY/WX    TMP DP  RH WIND       PRES   REMARKS
RUIDOSO        NOT AVBL                                               

$$
NMZ527>531-210000-
NORTHEAST HIGHLANDS/NORTHEAST PLAINS
  
CITY           SKY/WX    TMP DP  RH WIND       PRES   REMARKS
LAS VEGAS      FAIR      36   9  32 SW18G29   29.63R WCI  26          
RATON          FAIR      35  13  40 SW14      29.60R WCI  26          
CLAYTON        FAIR      37  17  44 S10       29.67S WCI  30          

$$
NMZ532>537-210000-
EASTCENTRAL PLAINS
  
CITY           SKY/WX    TMP DP  RH WIND       PRES   REMARKS
SANTA ROSA     FAIR      45   8  22 SW15G25   29.71S                  
TUCUMCARI      FAIR      51  11  20 W28G37    29.68S                  
CANNON AFB     FAIR      49   8  19 SW20G28   29.77R                  
CLOVIS AIRPORT FAIR      49  10  20 W17G29    29.76S                  

$$
NMZ028-029-538-210000-
SOUTHEAST PLAINS
  
CITY           SKY/WX    TMP DP  RH WIND       PRES   REMARKS
ROSWELL        FAIR      57   2  11 E14       29.71F                  
ARTESIA        FAIR      57  -2   9 S22G33    29.74S                  
CARLSBAD       FAIR      56   7  14 SE7       29.77S                  
HOBBS          SUNNY     54  -2  10 S12       29.80F                  


$$